Grizzly Air Cargo 5355


PAVD
Valdez Pioneer Field Airport
Valdez, Alaska, US
PANC
Ted Stevens Anchorage International Airport
Anchorage, Alaska, US

Activity Log

Date Flight Route Aircraft Duration
09/26/2019 GRZ555 FJORD1 YESKA YESKA6 SF34 0h 33m

Route Details

Aircraft Information
Primary: Saab 340AF
Backup: Not Available
Route Data
Distance: 120nm
Sched. Duration: 0h 60m
Avg. Duration: 0h 33m (-27m)
Times Flown: 1
Recm'd Route: FJORD1 YESKA YESKA6
Planned Altitude: 16,000ft
Origin Wx: PAVD 310856Z AUTO 01008KT 10SM CLR M03/M19 A3018 RMK AO2 SLP220 T10331189 53023 FZRANO
Dest. Wx: PANC 311253Z 16005KT 10SM CLR M11/M13 A3017 RMK AO2 SLP220 T11061133 $
Notes:

Financial History
Total Freight: 4,505lbs
Average Load: 4,505lbs/flt
Fuel Used: 469lbs
Avg. Fuel Used: 469lbs/flt
Fuel Expense: $516
Avg. Fuel Expense: $516
Avg. Fuel Cost: $1.10/lbs
Total Gross Income: $8,514
Pilot Pay: $229
Total Expenses: $972
Total Revenue: $6,896
Average Revenue: $8,514.45